Overview Statistics Trail Chart Weather Telemetry Raw packets
 

This is the latest recevied weather packets stored in our database for station/object E25DQY-1. If no packets are shown the sender has not sent any weather packets the latest 10 day(s).

<< 16 17 18 19 >>
Time Temp. Humidity Pressure Rain* Wind** Luminosity Snow
1787900150 37.22° C 50% 1003 hPa - - 0 W/m² -
1787898328 37.78° C 50% 1004 hPa - - 0 W/m² -
1787896506 37.78° C 51% 1004 hPa - - 0 W/m² -
1787894684 36.67° C 53% 1005 hPa - - 0 W/m² -
1787892861 35.56° C 53% 1005 hPa - - 0 W/m² -
1787891040 36.67° C 51% 1006 hPa - - 0 W/m² -
1787889219 36.67° C 52% 1006 hPa - - 0 W/m² -
1787887395 35° C 54% 1006 hPa - - 0 W/m² -
1787885573 35.56° C 53% 1006 hPa - - 0 W/m² -
1787883751 35.56° C 53% 1006 hPa - - 0 W/m² -
1787880107 34.44° C 57% 1005 hPa - - 0 W/m² -
1787878285 33.33° C 58% 1005 hPa - - 0 W/m² -
1787876463 32.22° C 59% 1004 hPa - - 0 W/m² -
1787874641 31.67° C 59% 1004 hPa - - 0 W/m² -
1787872819 31.11° C 58% 1004 hPa - - 0 W/m² -
1787870997 31.11° C 58% 1004 hPa - - 0 W/m² -
1787869176 31.11° C 58% 1004 hPa - - 0 W/m² -
1787867353 30.56° C 57% 1004 hPa - - 0 W/m² -
1787865531 30.56° C 56% 1003 hPa - - 0 W/m² -
1787863709 30° C 56% 1003 hPa - - 0 W/m² -
1787861887 30° C 55% 1003 hPa - - 0 W/m² -
1787860065 29.44° C 56% 1003 hPa - - 0 W/m² -
1787858243 28.89° C 55% 1004 hPa - - 0 W/m² -
1787856421 27.22° C 56% 1004 hPa - - 0 W/m² -
1787854599 25° C 54% 1004 hPa - - 0 W/m² -

* Rain since midnight (hover to see other rain measurements)
** Current wind speed in m/s (hover to see current wind gust speed)